Simultaneous Nadir Overpasses (SNOs) Predictions

Prediction of SNOs between METOP-A and TERRA Satellite Orbit:

Table of predicted SNOs for the next 14.0 days since TLE Epoch: 2/2/2019
Index Date (METOP-A) Time (METOP-A) Lat,Lon (METOP-A) SZA (METOP-A ) Date (TERRA) Time (TERRA) Lat,Lon (TERRA) SZA (TERRA ) Distance(km) Time Diff (sec)
1 02/03/2019 14:48:53 81.44, 7.75 100.48 02/03/2019 14:48:58 81.43, 7.65 100.46 1.99 5
2 02/03/2019 15:39:32 -81.44, 175.70 79.47 02/03/2019 15:38:24 -81.45, 175.60 79.51 1.95 68
3 02/06/2019 10:23:07 81.44, 74.33 99.64 02/06/2019 10:23:14 81.44, 74.23 99.63 1.76 7
4 02/06/2019 11:13:47 -81.44,-118.11 80.35 02/06/2019 11:12:41 -81.44,-118.18 80.39 1.15 66
5 02/09/2019 05:57:20 81.44, 140.90 98.77 02/09/2019 05:57:30 81.45, 140.77 98.77 2.22 10
6 02/09/2019 06:48:00 -81.44, -51.54 81.22 02/09/2019 06:46:57 -81.45, -51.60 81.25 1.15 63
7 02/12/2019 01:31:34 81.44,-152.55 97.87 02/12/2019 01:31:48 81.45,-152.73 97.87 3.12 14
8 02/12/2019 02:22:15 -81.44, 14.62 82.16 02/12/2019 02:21:16 -81.43, 14.55 82.20 1.59 59
9 02/14/2019 21:05:49 81.44, -86.42 96.90 02/14/2019 21:06:07 81.45, -86.27 96.93 2.65 18




NCC Satellite Simultaneous Nadir Overpasses (SNOs) Prediction Service
